Regional Weather Roundup
Issued by NWS

Home | Current Version | Previous Version | Graphics & Text | Print | Product List | Glossary Off
Versions: 1 2 3 4 5 6 7 8 9 10 11 12 13 14 15 16 17 18 19 20 21 22 23 24 25 26 27 28 29 30 31 32 33 34 35 36 37 38 39 40 41 42 43 44 45 46 47 48 49 50

000
ASUS43 KDMX 170007
RWRIA

WEATHER ROUNDUP FOR IOWA
NATIONAL WEATHER SERVICE DES MOINES IA
700 PM CDT TUE SEP 16 2014

NOTE: "FAIR" INDICATES FEW OR NO CLOUDS BELOW 12,000 FEET WITH NO
SIGNIFICANT WEATHER AND/OR OBSTRUCTIONS TO VISIBILITY.

* - THESE STATIONS ARE NOT NWS STATIONS...THUS NOT UNDER NWS
QUALITY CONTROL.  THEY ALSO DO NOT REPORT WEATHER SUCH
AS PRECIPITATION OR FOG.

IAZ001>003-012>014-020>022-031>034-043>046-170100-
   NORTHWEST IOWA

CITY           SKY/WX    TMP DP  RH WIND       PRES   REMARKS
CARROLL *      CLEAR     61  50  67 S5        30.04F
CHEROKEE *     CLEAR     63  49  61 S3        30.02F
DENISON *      CLEAR     63  50  63 SE6       30.02S
LE MARS *      CLEAR     64  50  59 SE8       30.01F
ORANGE CITY *  CLEAR     66  48  52 S6        30.01F
SHELDON *      CLEAR     63  50  63 S7        30.00F
SIOUX CITY     PTCLDY    64  50  60 S5        30.01F
6HR MIN TEMP:  64; 6HR MAX TEMP:  70;

SPENCER        CLEAR     64  48  56 S6        30.03F
6HR MIN TEMP:  63; 6HR MAX TEMP:  68;

STORM LAKE *   CLEAR     61  52  72 S7        30.04S
$$

IAZ055>058-069>071-079>083-090>094-170100-
   SOUTHWEST IOWA

CITY           SKY/WX    TMP DP  RH WIND       PRES   REMARKS
ATLANTIC *     CLEAR     64  50  59 S3        30.04S
AUDUBON *      CLEAR     61  48  63 CALM      30.06S
CLARINDA *     CLEAR     64  50  59 CALM      30.06S
COUNCIL BLFS * CLEAR     64  54  68 S5        30.02F
CRESTON *      CLEAR     61  50  67 SE6       30.06F
HARLAN  *      CLEAR     63  52  67 S5        30.07F
LAMONI         CLEAR     63  50  62 SE3       30.06F
6HR MIN TEMP:  62; 6HR MAX TEMP:  67;

SHENANDOAH *   CLEAR     63  54  72 SE5       30.04S
$$

IAZ047>049-059>061-072>074-084-170100-
   CENTRAL IOWA

CITY           SKY/WX    TMP DP  RH WIND       PRES   REMARKS
AMES           CLEAR     60  49  66 S5        30.06F
6HR MIN TEMP:  60; 6HR MAX TEMP:  66;

ANKENY *       CLEAR     63  50  63 SE3       30.06F
CHARITON *     CLEAR     63  52  67 SE3       30.07F
DES MOINES     CLEAR     65  48  54 S3        30.06F
6HR MIN TEMP:  64; 6HR MAX TEMP:  68;

GRINNELL*      CLEAR     61  48  63 CALM      30.08F
KNOXVILLE *    CLEAR     63  50  63 SE3       30.06F
MARSHALLTOWN   CLEAR     61  46  57 S6        30.06F
6HR MIN TEMP:  61; 6HR MAX TEMP:  66;

PELLA *        CLEAR     63  49  60 S3        30.08F
PERRY *          N/A     62  50  65 SE3       30.05F
$$

IAZ004>006-015-016-023>025-035-036-170100-
   NORTH CENTRAL IOWA

CITY           SKY/WX    TMP DP  RH WIND       PRES   REMARKS
ALGONA *       CLEAR     63  48  59 S5        30.04F
CLARION *        N/A     63  45  51 S6        30.05F
ESTHERVILLE    CLEAR     61  46  57 S5        30.02F
6HR MIN TEMP:  61; 6HR MAX TEMP:  66;

FORT DODGE *   CLEAR     63  45  51 S5        30.05F
MASON CITY     CLEAR     61  47  59 S3        30.06F
6HR MIN TEMP:  61; 6HR MAX TEMP:  66;

FOREST CITY *  CLEAR     61  45  55 S3        30.05S
IOWA FALLS *     N/A     61  46  59 S5        30.06F
$$

IAZ007>011-017>019-026>030-037>042-050>054-066-170100-
   NORTHEAST IOWA

CITY           SKY/WX    TMP DP  RH WIND       PRES   REMARKS
CEDAR RAPIDS   CLEAR     61  51  70 CALM      30.07F
6HR MIN TEMP:  61; 6HR MAX TEMP:  66;

CHARLES CITY * CLEAR     61  48  63 CALM      30.07F
CLINTON *      CLEAR     61  45  55 S6        30.12S
DECORAH *      CLEAR     61  45  55 CALM      30.06F
DUBUQUE        CLEAR     59  47  64 SW3       30.09F
6HR MIN TEMP:  59; 6HR MAX TEMP:  64;

MONTICELLO *   CLEAR     61  48  63 CALM      30.08F
OELWEIN *      CLEAR     61  46  59 CALM      30.08F
WATERLOO       CLEAR     61  45  55 S5        30.06F
6HR MIN TEMP:  60; 6HR MAX TEMP:  67;

$$

IAZ064-065-067-068-078-170100-
   EAST CENTRAL IOWA

CITY           SKY/WX    TMP DP  RH WIND       PRES   REMARKS
DAVENPORT      CLEAR     60  44  55 SW3       30.10F
6HR MIN TEMP:  60; 6HR MAX TEMP:  66;

IOWA CITY      CLEAR     63  48  58 S3        30.09F
6HR MIN TEMP:  62; 6HR MAX TEMP:  67;

MT. PLEASANT * CLEAR     63  47  55 SE5       30.09F
MUSCATINE *    CLEAR     64  46  52 CALM      30.09S
QUAD CITIES    CLEAR     64  45  49 NW3       30.09F
6HR MIN TEMP:  64; 6HR MAX TEMP:  68;

$$

IAZ062-063-075>077-085>089-095>099-170100-
   SOUTHEAST IOWA

CITY           SKY/WX    TMP DP  RH WIND       PRES   REMARKS
BURLINGTON     CLEAR     59  52  77 N3        30.09S
6HR MIN TEMP:  59; 6HR MAX TEMP:  67; 6HR PCP: TRACE;

FAIRFIELD *    CLEAR     61  46  59 CALM      30.08F
FORT MADISON * CLEAR     61  50  67 CALM      30.09F
KEOKUK *       CLEAR     63  54  72 CALM      30.08F
OSKALOOSA *      N/A     60  51  70 CALM      30.08F
CENTERVILLE *  CLEAR     61  54  77 SE3       30.09F
OTTUMWA        CLEAR     62  48  60 CALM      30.07F
6HR MIN TEMP:  62; 6HR MAX TEMP:  66;

WASHINGTON *   CLEAR     61  50  67 SE5       30.09S
$$

ABBREVIATIONS USED IN REMARKS
   TC - TEMPERATURES IN CELSIUS
  WCI - WIND CHILL INDEX
   HX - HEAT INDEX
  VSB - VISIBILITY
$$




USA.gov is the U.S. government's official web portal to all federal, state and local government web resources and services.